FW0065 Weather Reports


Display with metric or nautical units.
time (UTC)temp
F
wind
direction
speed
MPH
gust
MPH
rain 1hr
in
rain 24hr
in
rain mn
in
humidity
%
barometer
mb
20180921004959 67 304 3.0 10.0 0.00 0.00 0.00 33 1027.7
20180921003959 66 318 4.0 8.0 0.00 0.00 0.00 30 1027.7
20180921002959 65 33 4.0 12.0 0.00 0.00 0.00 31 1027.8
20180921002000 66 139 4.0 15.0 0.00 0.00 0.00 34 1027.8
20180921001000 65 78 3.0 9.0 0.00 0.00 0.00 32 1027.9
20180920235959 66 22 3.0 8.0 0.00 0.00 0.00 33 1027.9
20180920234959 65 337 3.0 8.0 0.00 0.00 0.00 35 1028.0
20180920234000 64 358 2.0 6.0 0.00 0.00 0.00 38 1028.1
20180920233000 65 65 3.0 7.0 0.00 0.00 0.00 34 1028.2
20180920231959 63 61 2.0 7.0 0.00 0.00 0.00 35 1028.3
20180920231000 62 94 3.0 10.0 0.00 0.00 0.00 39 1028.3
20180920230000 60 86 3.0 9.0 0.00 0.00 0.00 38 1028.3
20180920225000 61 73 3.0 9.0 0.00 0.00 0.00 38 1028.3
20180920224003 60 91 3.0 10.0 0.00 0.00 0.00 39 1028.3
20180920223000 59 99 3.0 8.0 0.00 0.00 0.00 40 1028.2
20180920221959 59 83 4.0 8.0 0.00 0.00 0.00 42 1028.0
20180920221003 57 86 4.0 9.0 0.00 0.00 0.00 44 1028.1
20180920220000 56 100 4.0 9.0 0.00 0.00 0.00 48 1028.0
20180920215000 55 120 3.0 8.0 0.00 0.00 0.00 49 1027.9
20180920214000 53 180 1.0 5.0 0.00 0.00 0.00 54 1027.8
20180920213000 51 190 1.0 3.0 0.00 0.00 0.00 58 1027.9
20180920212000 49 190 1.0 4.0 0.00 0.00 0.00 63 1027.8
20180920211000 46 190 1.0 2.0 0.00 0.00 0.00 68 1027.8
20180920210000 44 190 1.0 3.0 0.00 0.00 0.00 71 1027.7
20180920205000 43 190 1.0 3.0 0.00 0.00 0.00 74 1027.5
20180920204000 41 190 1.0 2.0 0.00 0.00 0.00 77 1027.4
20180920203000 39 190 0.0 2.0 0.00 0.00 0.00 80 1027.2
20180920201959 38 191 1.0 2.0 0.00 0.00 0.00 81 1027.1
20180920201000 38 177 2.0 5.0 0.00 0.00 0.00 81 1026.9
20180920200000 38 177 3.0 7.0 0.00 0.00 0.00 80 1026.7
20180920195000 38 179 2.0 5.0 0.00 0.00 0.00 81 1026.6
20180920194000 37 198 1.0 3.0 0.00 0.00 0.00 83 1026.6
20180920192959 37 212 1.0 4.0 0.00 0.00 0.00 82 1026.4
20180920192000 37 219 1.0 3.0 0.00 0.00 0.00 82 1026.3
20180920191002 37 219 1.0 3.0 0.00 0.00 0.00 82 1026.1
20180920190000 37 202 2.0 4.0 0.00 0.00 0.00 82 1025.9
20180920185000 38 169 2.0 5.0 0.00 0.00 0.00 81 1025.8
20180920183959 37 151 2.0 6.0 0.00 0.00 0.00 82 1025.5
20180920183001 36 173 3.0 6.0 0.00 0.00 0.00 83 1025.3
20180920182000 35 205 2.0 4.0 0.00 0.00 0.00 84 1025.4
20180920181002 35 120 2.0 3.0 0.00 0.00 0.00 83 1025.3
20180920180000 35 120 1.0 2.0 0.00 0.00 0.00 83 1025.1
20180920175000 35 120 0.0 1.0 0.00 0.00 0.00 82 1025.1
20180920174001 34 120 0.0 1.0 0.00 0.00 0.00 82 1025.0
20180920173000 35 120 1.0 2.0 0.00 0.00 0.00 82 1024.9
20180920172000 34 0 0.0 0.0 0.00 0.00 0.00 83 1024.8
20180920171020 35 120 0.0 2.0 0.00 0.00 0.00 82 1024.7
20180920170000 35 120 0.0 1.0 0.00 0.00 0.00 81 1024.7
20180920165000 35 120 0.0 1.0 0.00 0.00 0.00 81 1024.7
20180920164000 35 120 0.0 1.0 0.00 0.00 0.00 79 1024.6
20180920163000 35 120 0.0 1.0 0.00 0.00 0.00 78 1024.6
20180920162000 36 120 1.0 2.0 0.00 0.00 0.00 76 1024.6
20180920161000 35 120 0.0 1.0 0.00 0.00 0.00 75 1024.8
20180920160000 36 120 0.0 1.0 0.00 0.00 0.00 74 1024.9
20180920155000 36 120 0.0 2.0 0.00 0.00 0.00 74 1024.8
20180920154000 36 120 0.0 1.0 0.00 0.00 0.00 72 1024.9
20180920153000 36 120 0.0 2.0 0.00 0.00 0.00 71 1024.9
20180920152000 36 120 1.0 2.0 0.00 0.00 0.00 70 1024.9
20180920151001 37 120 0.0 2.0 0.00 0.00 0.00 68 1025.0
20180920150000 37 120 0.0 1.0 0.00 0.00 0.00 69 1025.1
20180920145000 38 120 1.0 3.0 0.00 0.00 0.00 67 1025.1
20180920144000 38 120 1.0 2.0 0.00 0.00 0.00 66 1025.1
20180920143000 38 120 1.0 2.0 0.00 0.00 0.00 65 1025.1
20180920141959 38 120 0.0 1.0 0.00 0.00 0.00 63 1024.9
20180920141000 38 120 0.0 1.0 0.00 0.00 0.00 64 1024.9
20180920140000 38 0 0.0 0.0 0.00 0.00 0.00 63 1024.9
20180920135001 39 0 0.0 0.0 0.00 0.00 0.00 60 1024.8
20180920134000 39 120 0.0 2.0 0.00 0.00 0.00 60 1024.8
20180920133000 40 120 0.0 1.0 0.00 0.00 0.00 58 1024.8
20180920132000 40 120 1.0 1.0 0.00 0.00 0.00 56 1024.7
20180920131003 40 120 1.0 2.0 0.00 0.00 0.00 55 1024.6
20180920125000 41 120 1.0 2.0 0.00 0.00 0.00 54 1024.6
20180920124000 42 120 1.0 3.0 0.00 0.00 0.00 51 1024.5
20180920123000 43 120 1.0 3.0 0.00 0.00 0.00 49 1024.5
20180920122000 43 120 2.0 3.0 0.00 0.00 0.00 46 1024.5
20180920121000 43 119 0.0 2.0 0.00 0.00 0.00 45 1024.4
20180920120000 44 122 2.0 6.0 0.00 0.00 0.00 43 1024.4
20180920115000 43 165 2.0 4.0 0.00 0.00 0.00 45 1024.0
20180920114000 43 232 0.0 2.0 0.00 0.00 0.00 45 1023.6
20180920113001 44 232 1.0 3.0 0.00 0.00 0.00 42 1023.5
20180920112000 44 233 0.0 2.0 0.00 0.00 0.00 41 1023.4
20180920110959 45 233 0.0 2.0 0.00 0.00 0.00 40 1023.2
20180920110000 45 233 1.0 2.0 0.00 0.00 0.00 41 1023.0
20180920105000 46 233 1.0 3.0 0.00 0.00 0.00 40 1023.0
20180920104000 46 233 1.0 2.0 0.00 0.00 0.00 38 1022.8
20180920103000 47 233 1.0 3.0 0.00 0.00 0.00 37 1022.7
20180920102000 47 233 1.0 2.0 0.00 0.00 0.00 37 1022.5
20180920101000 47 230 1.0 3.0 0.00 0.00 0.00 37 1022.4
20180920100000 47 229 1.0 4.0 0.00 0.00 0.00 37 1022.3
20180920095000 47 229 1.0 2.0 0.00 0.00 0.00 40 1022.1
20180920094000 48 229 1.0 2.0 0.00 0.00 0.00 36 1022.1
20180920093000 49 229 1.0 3.0 0.00 0.00 0.00 34 1022.0
20180920092000 49 229 0.0 1.0 0.00 0.00 0.00 36 1021.8
20180920091000 50 229 0.0 1.0 0.00 0.00 0.00 34 1021.6
20180920090000 51 229 1.0 2.0 0.00 0.00 0.00 32 1021.5
20180920085000 53 230 2.0 4.0 0.00 0.00 0.00 29 1021.3
20180920084000 54 229 2.0 5.0 0.00 0.00 0.00 26 1021.1
20180920083001 55 220 3.0 7.0 0.00 0.00 0.00 25 1020.8
20180920082000 56 232 4.0 11.0 0.00 0.00 0.00 24 1020.7
20180920080000 57 230 5.0 12.0 0.00 0.00 0.00 23 1020.2
20180920075000 58 229 6.0 14.0 0.00 0.00 0.00 22 1020.1
20180920074000 59 227 8.0 14.0 0.00 0.00 0.00 21 1019.8
20180920073001 59 231 8.0 15.0 0.00 0.00 0.00 21 1019.7
20180920072001 60 235 8.0 19.0 0.00 0.00 0.00 19 1019.4
20180920071000 60 241 9.0 17.0 0.00 0.00 0.00 19 1019.3
20180920070001 61 229 8.0 16.0 0.00 0.00 0.00 20 1019.1
20180920065000 62 233 9.0 18.0 0.00 0.00 0.00 20 1018.8
20180920064000 62 233 9.0 16.0 0.00 0.00 0.00 21 1018.6
20180920063000 62 237 10.0 18.0 0.00 0.00 0.00 21 1018.3
20180920062001 63 231 7.0 15.0 0.00 0.00 0.00 20 1018.0
20180920061000 64 228 7.0 20.0 0.00 0.00 0.00 20 1017.9
20180920060000 64 235 8.0 19.0 0.00 0.00 0.00 20 1017.7
20180920055001 65 225 8.0 16.0 0.00 0.00 0.00 21 1017.5
20180920054000 65 240 10.0 18.0 0.00 0.00 0.00 21 1017.4
20180920053000 66 227 8.0 21.0 0.00 0.00 0.00 20 1017.2
20180920052000 67 229 7.0 17.0 0.00 0.00 0.00 21 1017.2
20180920051001 67 257 9.0 17.0 0.00 0.00 0.00 18 1017.0
20180920050000 68 242 8.0 17.0 0.00 0.00 0.00 16 1016.8
20180920045000 68 278 8.0 17.0 0.00 0.00 0.00 15 1016.7
20180920044001 68 270 9.0 17.0 0.00 0.00 0.00 15 1016.7
20180920043000 68 282 10.0 20.0 0.00 0.00 0.00 16 1016.8
20180920042000 68 277 10.0 18.0 0.00 0.00 0.00 19 1016.7
20180920041000 68 265 11.0 19.0 0.00 0.00 0.00 19 1016.8
20180920040001 69 279 9.0 21.0 0.00 0.00 0.00 19 1016.8
20180920035000 69 282 9.0 18.0 0.00 0.00 0.00 19 1016.8
20180920034001 69 293 7.0 17.0 0.00 0.00 0.00 19 1016.8
20180920033000 69 265 6.0 16.0 0.00 0.00 0.00 19 1016.9
20180920032000 68 275 9.0 14.0 0.00 0.00 0.00 22 1017.0
20180920031000 68 273 9.0 17.0 0.00 0.00 0.00 21 1017.1
20180920030001 69 296 10.0 17.0 0.00 0.00 0.00 19 1017.2
20180920025000 69 279 9.0 18.0 0.00 0.00 0.00 22 1017.2
20180920024000 70 279 4.0 10.0 0.00 0.00 0.00 24 1017.3
20180920023000 68 260 6.0 14.0 0.00 0.00 0.00 26 1017.4
20180920022000 67 256 9.0 17.0 0.00 0.00 0.00 26 1017.5
20180920021000 68 260 7.0 14.0 0.00 0.00 0.00 22 1017.4
20180920020001 69 255 5.0 11.0 0.00 0.00 0.00 25 1017.5
20180920015000 67 253 7.0 18.0 0.00 0.00 0.00 27 1017.6
20180920014000 67 257 7.0 13.0 0.00 0.00 0.00 26 1017.8
20180920013001 66 247 8.0 16.0 0.00 0.00 0.00 25 1017.9
20180920012000 66 237 7.0 14.0 0.00 0.00 0.00 26 1018.0
20180920011001 66 262 6.0 17.0 0.00 0.00 0.00 27 1018.1
20180920010001 67 267 6.0 14.0 0.00 0.00 0.00 28 1018.2